EWG11L EDDG-EDFH

Flight info

Callsign EWG11L
Flight time 0h 36m
Altitude 22000
Route DOMEG2Z DOMEG N853 ONUNE T473 LIPMI T911 ROLIS DCT
Aircraft A320/M-SDE3FGHIRWY/LB1

Departure

Time 2026-04-20 23:33
Airport Münster Osnabrück Airport (EDDG)

Arrival

Time 2026-04-21 00:09
Airport Frankfurt-Hahn Airport (EDFH)
Time Latitude Longitude Altitude Speed Heading
2026-04-20 23:13 52.13249 7.69120 167 ft 0 kts 341°
2026-04-20 23:29 52.13254 7.69117 167 ft 2 kts 341°
2026-04-20 23:29 52.13264 7.69111 167 ft 3 kts 341°
2026-04-20 23:29 52.13335 7.69129 167 ft 18 kts 46°
2026-04-20 23:30 52.13401 7.69242 167 ft 12 kts
2026-04-20 23:30 52.13466 7.69316 168 ft 13 kts 70°
2026-04-20 23:30 52.13497 7.69466 168 ft 15 kts 68°
2026-04-20 23:30 52.13534 7.69640 168 ft 17 kts 70°
2026-04-20 23:31 52.13576 7.69837 168 ft 20 kts 71°
2026-04-20 23:31 52.13594 7.69925 168 ft 0 kts 72°
2026-04-20 23:31 52.13601 7.69953 168 ft 10 kts 65°
2026-04-20 23:31 52.13657 7.70029 168 ft 11 kts 18°
2026-04-20 23:32 52.13729 7.70014 167 ft 11 kts 339°
2026-04-20 23:32 52.13767 7.69925 167 ft 9 kts 269°
2026-04-20 23:32 52.13757 7.69862 168 ft 0 kts 251°
2026-04-20 23:32 52.13752 7.69838 168 ft 19 kts 251°
2026-04-20 23:33 52.13610 7.69161 170 ft 102 kts 251°
2026-04-20 23:33 52.13320 7.67751 216 ft 153 kts 253°
2026-04-20 23:33 52.12975 7.66034 757 ft 167 kts 251°
2026-04-20 23:33 52.12561 7.64246 1504 ft 171 kts 246°
2026-04-20 23:34 52.12069 7.62417 1948 ft 185 kts 229°
2026-04-20 23:34 52.10965 7.61357 2315 ft 194 kts 182°
2026-04-20 23:34 52.09545 7.61296 2686 ft 217 kts 176°
2026-04-20 23:34 52.07946 7.61252 2933 ft 252 kts 178°
2026-04-20 23:35 52.06112 7.61163 3771 ft 260 kts 178°
2026-04-20 23:35 52.02485 7.60920 5822 ft 266 kts 179°
2026-04-20 23:35 52.00616 7.60783 6781 ft 272 kts 179°
2026-04-20 23:36 51.98709 7.60646 7697 ft 276 kts 179°
2026-04-20 23:36 51.96770 7.60514 8619 ft 281 kts 180°
2026-04-20 23:36 51.94803 7.60380 9545 ft 286 kts 180°
2026-04-20 23:36 51.92796 7.60242 10418 ft 292 kts 180°
2026-04-20 23:37 51.90682 7.60097 10792 ft 315 kts 180°
2026-04-20 23:37 51.88409 7.59943 11081 ft 339 kts 180°
2026-04-20 23:37 51.85992 7.59775 11603 ft 352 kts 181°
2026-04-20 23:37 51.83520 7.59595 12353 ft 358 kts 181°
2026-04-20 23:38 51.81017 7.59410 13132 ft 363 kts 181°
2026-04-20 23:38 51.78480 7.59225 13916 ft 367 kts 181°
2026-04-20 23:38 51.75915 7.59041 14617 ft 371 kts 181°
2026-04-20 23:38 51.73317 7.58864 15304 ft 375 kts 181°
2026-04-20 23:39 51.70703 7.58437 15997 ft 380 kts 189°
2026-04-20 23:39 51.68136 7.57324 16673 ft 385 kts 196°
2026-04-20 23:39 51.65565 7.56025 17374 ft 389 kts 196°
2026-04-20 23:39 51.63006 7.54729 18050 ft 392 kts 196°
2026-04-20 23:40 51.60390 7.53410 18709 ft 396 kts 196°
2026-04-20 23:40 51.57748 7.52078 19302 ft 399 kts 196°
2026-04-20 23:40 51.55088 7.50739 19908 ft 402 kts 196°
2026-04-20 23:40 51.52395 7.49393 20222 ft 406 kts 196°
2026-04-20 23:41 51.49704 7.48051 20225 ft 404 kts 196°
2026-04-20 23:41 51.47005 7.46707 20676 ft 408 kts 196°
2026-04-20 23:41 51.44287 7.45350 21321 ft 410 kts 196°
2026-04-20 23:41 51.41554 7.43987 21891 ft 413 kts 196°
2026-04-20 23:42 51.38798 7.42616 22184 ft 414 kts 195°
2026-04-20 23:42 51.36016 7.41213 22238 ft 426 kts 197°
2026-04-20 23:42 51.33222 7.39667 22244 ft 434 kts 198°
2026-04-20 23:42 51.30388 7.37974 22242 ft 436 kts 199°
2026-04-20 23:43 51.27552 7.36213 22227 ft 437 kts 200°
2026-04-20 23:43 51.24730 7.34446 22235 ft 436 kts 200°
2026-04-20 23:43 51.21897 7.32695 22232 ft 436 kts 199°
2026-04-20 23:43 51.19062 7.30979 22226 ft 436 kts 199°
2026-04-20 23:44 51.16161 7.29651 22224 ft 432 kts 186°
2026-04-20 23:44 51.13175 7.29473 22224 ft 429 kts 173°
2026-04-20 23:44 51.10238 7.30230 22226 ft 426 kts 163°
2026-04-20 23:44 51.07435 7.31705 22219 ft 423 kts 155°
2026-04-20 23:45 51.04823 7.33831 22218 ft 421 kts 147°
2026-04-20 23:45 51.02318 7.36242 22215 ft 421 kts 147°
2026-04-20 23:45 51.00661 7.37841 22212 ft 421 kts 147°
2026-04-20 23:45 50.97309 7.41080 22212 ft 421 kts 147°
2026-04-20 23:46 50.95655 7.42685 22212 ft 421 kts 147°
2026-04-20 23:46 50.93162 7.45110 22211 ft 421 kts 147°
2026-04-20 23:46 50.90671 7.47531 22214 ft 421 kts 147°
2026-04-20 23:46 50.88171 7.49951 22214 ft 421 kts 147°
2026-04-20 23:47 50.85670 7.52366 22211 ft 421 kts 147°
2026-04-20 23:47 50.83172 7.54774 22212 ft 421 kts 147°
2026-04-20 23:47 50.80670 7.57184 22209 ft 421 kts 147°
2026-04-20 23:47 50.78139 7.59507 22203 ft 422 kts 152°
2026-04-20 23:48 50.75454 7.61379 22196 ft 423 kts 155°
2026-04-20 23:48 50.72743 7.63186 22193 ft 423 kts 155°
2026-04-20 23:48 50.70031 7.64989 22189 ft 423 kts 155°
2026-04-20 23:48 50.67316 7.66787 22189 ft 423 kts 155°
2026-04-20 23:49 50.64594 7.68590 22185 ft 423 kts 155°
2026-04-20 23:49 50.61885 7.70382 22190 ft 423 kts 155°
2026-04-20 23:49 50.59154 7.72186 22192 ft 423 kts 155°
2026-04-20 23:49 50.56447 7.73975 22195 ft 423 kts 155°
2026-04-20 23:50 50.53725 7.75774 22196 ft 423 kts 155°
2026-04-20 23:50 50.51014 7.77567 22196 ft 423 kts 156°
2026-04-20 23:50 50.48215 7.78986 22177 ft 419 kts 166°
2026-04-20 23:50 50.45376 7.79467 22060 ft 404 kts 178°
2026-04-20 23:51 50.42625 7.79053 21927 ft 391 kts 190°
2026-04-20 23:51 50.40050 7.77868 21670 ft 383 kts 201°
2026-04-20 23:51 50.37727 7.76009 21289 ft 378 kts 211°
2026-04-20 23:51 50.35590 7.73654 20897 ft 372 kts 215°
2026-04-20 23:52 50.33500 7.71312 20506 ft 367 kts 215°
2026-04-20 23:52 50.31434 7.69009 20110 ft 362 kts 215°
2026-04-20 23:52 50.29386 7.66734 19608 ft 361 kts 215°
2026-04-20 23:52 50.27343 7.64468 19112 ft 360 kts 215°
2026-04-20 23:53 50.25302 7.62205 18600 ft 359 kts 216°
2026-04-20 23:53 50.23264 7.59942 18027 ft 357 kts 216°
2026-04-20 23:53 50.21276 7.57734 17449 ft 344 kts 216°
2026-04-20 23:53 50.19356 7.55610 16881 ft 333 kts 216°
2026-04-20 23:54 50.17487 7.53545 16298 ft 325 kts 216°
2026-04-20 23:54 50.15667 7.51533 15726 ft 317 kts 216°
2026-04-20 23:54 50.13882 7.49560 15165 ft 311 kts 216°
2026-04-20 23:54 50.12135 7.47634 14613 ft 305 kts 216°
2026-04-20 23:55 50.10415 7.45742 14074 ft 300 kts 216°
2026-04-20 23:55 50.08725 7.43883 13487 ft 296 kts 216°
2026-04-20 23:55 50.07060 7.42053 12893 ft 291 kts 216°
2026-04-20 23:55 50.05412 7.40240 12320 ft 287 kts 216°
2026-04-20 23:56 50.03805 7.38472 11738 ft 284 kts 215°
2026-04-20 23:56 50.02206 7.36717 11181 ft 280 kts 215°
2026-04-20 23:56 50.00624 7.34983 10629 ft 276 kts 215°
2026-04-20 23:56 49.99062 7.33272 10088 ft 273 kts 215°
2026-04-20 23:57 49.97521 7.31587 9482 ft 269 kts 215°
2026-04-20 23:57 49.96000 7.29924 8894 ft 265 kts 215°
2026-04-20 23:57 49.94501 7.28289 8308 ft 262 kts 215°
2026-04-20 23:57 49.93026 7.26678 7736 ft 258 kts 215°
2026-04-20 23:58 49.91569 7.25086 7183 ft 254 kts 215°
2026-04-20 23:58 49.90135 7.23525 6626 ft 250 kts 215°
2026-04-20 23:58 49.88718 7.21981 6041 ft 247 kts 215°
2026-04-20 23:58 49.87320 7.20459 5465 ft 244 kts 215°
2026-04-20 23:59 49.85947 7.18965 5193 ft 238 kts 215°
2026-04-20 23:59 49.84582 7.17478 4996 ft 238 kts 215°
2026-04-20 23:59 49.83222 7.15998 5003 ft 239 kts 215°
2026-04-20 23:59 49.81858 7.14519 5008 ft 239 kts 215°
2026-04-21 00:00 49.80497 7.13045 5010 ft 239 kts 215°
2026-04-21 00:00 49.79134 7.11568 5011 ft 239 kts 215°
2026-04-21 00:00 49.77773 7.10095 5009 ft 239 kts 215°
2026-04-21 00:00 49.76418 7.08629 5006 ft 234 kts 214°
2026-04-21 00:01 49.75096 7.07199 5012 ft 231 kts 215°
2026-04-21 00:01 49.73789 7.05785 5013 ft 230 kts 214°
2026-04-21 00:01 49.72507 7.04394 5010 ft 222 kts 215°
2026-04-21 00:01 49.71336 7.02868 5005 ft 220 kts 237°
2026-04-21 00:02 49.70935 7.00664 5013 ft 216 kts 278°
2026-04-21 00:02 49.71543 6.98619 5017 ft 212 kts 319°
2026-04-21 00:02 49.72835 6.97667 5009 ft 208 kts 357°
2026-04-21 00:02 49.74205 6.98164 5012 ft 206 kts 35°
2026-04-21 00:03 49.75061 6.99886 5023 ft 206 kts 65°
2026-04-21 00:03 49.75700 7.01874 5014 ft 207 kts 62°
2026-04-21 00:03 49.76368 7.03840 5041 ft 204 kts 62°
2026-04-21 00:03 49.77014 7.05736 5022 ft 196 kts 62°
2026-04-21 00:04 49.77646 7.07595 5008 ft 195 kts 62°
2026-04-21 00:04 49.78323 7.09417 5012 ft 195 kts 52°
2026-04-21 00:04 49.79266 7.10877 4964 ft 187 kts 39°
2026-04-21 00:04 49.80296 7.12027 4787 ft 178 kts 34°
2026-04-21 00:05 49.81315 7.13060 4560 ft 172 kts 33°
2026-04-21 00:05 49.82292 7.14027 4332 ft 160 kts 33°
2026-04-21 00:05 49.83198 7.14919 4118 ft 150 kts 33°
2026-04-21 00:05 49.84056 7.15761 3943 ft 140 kts 33°
2026-04-21 00:06 49.84858 7.16548 3737 ft 133 kts 33°
2026-04-21 00:06 49.85637 7.17312 3556 ft 131 kts 33°
2026-04-21 00:06 49.86393 7.18054 3378 ft 130 kts 33°
2026-04-21 00:06 49.87154 7.18800 3204 ft 129 kts 33°
2026-04-21 00:07 49.87914 7.19547 3022 ft 129 kts 33°
2026-04-21 00:07 49.88672 7.20292 2842 ft 129 kts 33°
2026-04-21 00:07 49.89427 7.21034 2663 ft 129 kts 33°
2026-04-21 00:07 49.90184 7.21776 2417 ft 129 kts 33°
2026-04-21 00:08 49.90938 7.22521 2266 ft 129 kts 33°
2026-04-21 00:08 49.91695 7.23274 2105 ft 130 kts 32°
2026-04-21 00:08 49.92457 7.24030 1948 ft 130 kts 31°
2026-04-21 00:08 49.93231 7.24769 1734 ft 131 kts 33°
2026-04-21 00:09 49.93970 7.25513 1638 ft 117 kts 32°
2026-04-21 00:09 49.94596 7.26125 1628 ft 96 kts 32°
2026-04-21 00:09 49.95091 7.26618 1617 ft 56 kts 32°
2026-04-21 00:09 49.95265 7.26790 1617 ft 30 kts 32°
2026-04-21 00:10 49.95442 7.26961 1614 ft 30 kts 31°
2026-04-21 00:10 49.95621 7.27135 1609 ft 30 kts 33°
2026-04-21 00:10 49.95753 7.27300 1608 ft 18 kts 70°
2026-04-21 00:10 49.95692 7.27442 1610 ft 17 kts 145°
2026-04-21 00:11 49.95586 7.27542 1613 ft 18 kts 164°
2026-04-21 00:11 49.95472 7.27469 1615 ft 18 kts 212°
2026-04-21 00:11 49.95362 7.27359 1609 ft 19 kts 213°
2026-04-21 00:11 49.95245 7.27243 1615 ft 20 kts 212°
2026-04-21 00:12 49.95123 7.27121 1621 ft 22 kts 213°
2026-04-21 00:12 49.94993 7.26991 1621 ft 23 kts 212°
2026-04-21 00:12 49.94856 7.26858 1618 ft 24 kts 212°
2026-04-21 00:12 49.94744 7.26746 1624 ft 8 kts 213°
2026-04-21 00:13 49.94709 7.26745 1623 ft 3 kts 114°
2026-04-21 00:13 49.94704 7.26781 1620 ft 3 kts 103°
2026-04-21 00:13 49.94696 7.26814 1620 ft 3 kts 114°
2026-04-21 00:13 49.94686 7.26845 1623 ft 3 kts 119°
2026-04-21 00:14 49.94674 7.26869 1625 ft 2 kts 132°
2026-04-21 00:14 49.94661 7.26878 1626 ft 1 kts 162°
2026-04-21 00:14 49.94646 7.26874 1623 ft 2 kts 196°
2026-04-21 00:14 49.94638 7.26868 1624 ft 1 kts 205°
2026-04-21 00:15 49.94634 7.26865 1623 ft 2 kts 207°
2026-04-21 00:15 49.94634 7.26864 1623 ft 0 kts 207°